Overview Statistics Trail Chart Weather Telemetry Raw packets
 

This is the latest recevied weather packets stored in our database for station/object NB9X. If no packets are shown the sender has not sent any weather packets the latest 10 day(s).

<< 54 55 56 57 58 59 60 >>
Time Temp. Humidity Pressure Rain* Wind** Luminosity Snow
1788284066 33.33° C 100% 1015.1 hPa 0 mm - - -
1788283766 32.78° C 100% 1015.1 hPa 0 mm - - -
1788283466 33.33° C 100% 1015 hPa 0 mm - - -
1788283166 32.78° C 100% 1015.1 hPa 0 mm - - -
1788282866 32.22° C 100% 1015.2 hPa 0 mm - - -
1788282566 31.67° C 100% 1015.2 hPa 0 mm - - -
1788282266 32.22° C 100% 1015.3 hPa 0 mm - - -
1788281966 32.22° C 100% 1015.4 hPa 0 mm - - -
1788281666 33.33° C 100% 1015.4 hPa 0 mm - - -
1788281366 33.33° C 100% 1015.5 hPa 0 mm - - -
1788281066 33.89° C 100% 1015.5 hPa 0 mm - - -
1788280766 35.56° C 100% 1015.7 hPa 0 mm - - -
1788280466 35° C 100% 1015.7 hPa 0 mm - - -
1788280166 35° C 100% 1015.7 hPa 0 mm - - -
1788279866 34.44° C 100% 1015.9 hPa 0 mm - - -
1788279566 34.44° C 100% 1016 hPa 0 mm - - -
1788279266 33.89° C 100% 1016.1 hPa 0 mm - - -
1788278966 34.44° C 100% 1016.2 hPa 0 mm - - -
1788278666 34.44° C 100% 1016.2 hPa 0 mm - - -
1788278366 34.44° C 100% 1016.3 hPa 0 mm - - -
1788278066 33.33° C 100% 1016.3 hPa 0 mm - - -
1788277766 33.89° C 100% 1016.3 hPa 0 mm - - -
1788277466 33.89° C 100% 1016.2 hPa 0 mm - - -
1788277166 33.89° C 100% 1016.3 hPa 0 mm - - -
1788276866 33.89° C 100% 1016.2 hPa 0 mm - - -

* Rain latest hour (hover to see other rain measurements)
** Current wind speed in m/s (hover to see current wind gust speed)